Location: Eyeline Observatory
(43.2182°N, 78.8632°W)
Time: 00:05:08
(UTC-04:00)

Tiangong 1 - Pass Details

Date: 08 October 2017
Orbit: 292 x 319 km, 42.8° (Epoch: 22 October)

Event Time Altitude Azimuth Distance (km) Brightness Sun altitude
Rises 20:31:43 0° 267° (W) 2,033 6.2 -20.4°
Reaches altitude 10° 20:33:43 10° 267° (W) 1,198 4.6 -20.8°
Enters shadow 20:35:21 33° 264° (W) 549 2.4 -21.1°
